COSMOS 2251 DEB, 34127

Orbit data source: Space-Track

COSMOS 2251 DEB, 34127 is space debris in LEO originally from a launch on Wed, 16 Jun 1993 UTC launched from the Plesetsk Missile And Space Complex (PKMTR). The debris from Iridium 33, an American commercial communications satellite, has been tracked extensively since its accidental collision with the defunct Russian satellite Cosmos 2251 in 2009. This event, occurring at high speed in low Earth orbit (LEO), generated thousands of pieces of space debris, significantly increasing the risk of further collisions. The Iridium 33 debris cloud has impacted space traffic management and orbital debris mitigation strategies, making it a subject of ongoing study in space situational awareness.

Loading next visibility...
Identifier
34127, 1993-036KY
Orbit
LEO
Country
Flag of CISCIS
Related business
Manufacturer
Unknown
Mission
Spacecraft
Bus & Motor
Unknown
Mass
Unknown
Launch date (UTC)
1993-06-16 (33 years ago)
Launch vehicle
Unknown
Launch site
Plesetsk Missile And Space Complex (PKMTR)
Object type
Payload
Rocket body
Debris
Shape & HBR
Unknown shape, 0.1 m
Radar Cross Section
Small (<0.1 m²)

Expand to show TLE details & history
Last TLE update: 8 hours ago

TLE from 8 hours ago
0 COSMOS 2251 DEB
1 34127U 93036KY  25354.12466736  .00002966  00000-0  10447-2 0  9993
2 34127  74.1792  30.5171 0114891 229.0714 197.4918 14.31607311868777
Epoch: 2025-12-20T02:59Z
TLE epoch observation values (Epoch: 2025-12-20T02:59:31.259Z)
Latitude
61.75798°
Longitude
-71.66615°
Altitude
875.192 km
Speed
7.38 km/s
True Right ascension
04h 08m 40s
True Declination
61° 37' 00"
Sunlit
Object was in full shadow at epoch
Visualization orbit readout
Latitude
Unknown
Longitude
Unknown
Altitude
Unknown
Speed
Unknown
Apparent Right ascension
Unknown
Apparent Declination
Unknown
Sunlit
N/A
Visualization observer readout
Local Sidereal Time
10:07:41
Azimuth
Unknown
Elevation
Unknown
Doppler factor
Unknown
Orbital elements
Apogee altitude
866.266 km
Perigee altitude
701.693 km
Semi-major axis
7,162.117 km
Eccentricity
0.01149
Inclination
74.1792°
RAAN
30.5171°
Arg. of periapsis
229.0714°
True anomaly
197.10144°
Mean anomaly
197.4918°
Eccentric anomaly
197.29609°
Mean motion
3.58081 °/min
Orbital period
100.54 mins
BSTAR
0.0010447
Loading maneuver chart data...
Computing Atmospheric mass density...

Documentation

Showing up to 5 results
|